Weather History for Charleston, SC

Change the Weather History Date:

Saturday, February 16, 2013

  Actual Average Record
Temperature  
Mean Temperature 44 °F 52 °F  
Max Temperature 54 °F 63 °F 87 °F (1989)
Min Temperature 34 °F 41 °F 19 °F (1991)
Degree Days  
Heating Degree Days 21 13  
Month to date heating degree days 203 233  
Since 1 July heating degree days 1216 1492  
Cooling Degree Days 0 0  
Month to date cooling degree days 0 0  
Year to date cooling degree days 21 2  
Moisture  
Dew Point 37 °F    
Average Humidity 76    
Maximum Humidity 96    
Minimum Humidity 56    
Precipitation  
Precipitation 0.02 in 0.11 in 3.02 in (1998)
Month to date precipitation 5.24 1.70  
Year to date precipitation 5.59 5.41  
Snow  
Snow T in 0.00 in - ()
Month to date snowfall T  
Since 1 July snowfall T 0.4  
Snow Depth 0.00 in    
Sea Level Pressure  
Sea Level Pressure 29.91 in    
Wind  
Wind Speed 8 mph (NW)    
Max Wind Speed 26 mph    
Max Gust Speed 35 mph    
Visibility 10 miles    
Events Rain    
T = Trace of Precipitation, MM = Missing Value Source: NWS Daily Summary

Daily Weather History Graph

Daily Weather History Graph

Search for Another Location

Airport:

Trip Planner

Search our weather history database for the weather conditions in past years. The results will help you decide how hot, cold, wet, or windy it might be!

Date:

Astronomy

Feb. 16, 2013 Rise Set
Actual Time 7:02 AM EST 6:06 PM EST
Civil Twilight 6:37 AM EST 6:31 PM EST
Nautical Twilight 6:08 AM EST 7:00 PM EST
Astronomical Twilight 5:39 AM EST 7:29 PM EST
Moon 10:37 AM EST No Moon Set
Length of Visible Light 11h 54m
Length of Day
11h 04m
Waxing Crescent, 39% of the Moon is Illuminated
Feb 16
Waxing Crescent
Feb 17
First Quarter
Feb 25
Full
Mar 4
Last Quarter
Mar 11
New

Hourly Weather History & Observations

Time (EST) Temp. Windchill Dew Point Humidity Pressure Visibility Wind Dir Wind Speed Gust Speed Precip Events Conditions
12:56 AM 44.1 °F - 41.0 °F 89% 29.97 in 10.0 mi Calm Calm - N/A   Partly Cloudy
1:56 AM 44.1 °F - 41.0 °F 89% 29.96 in 10.0 mi Calm Calm - N/A   Partly Cloudy
2:56 AM 44.1 °F - 41.0 °F 89% 29.94 in 10.0 mi Calm Calm - N/A   Partly Cloudy
3:56 AM 43.0 °F - 41.0 °F 93% 29.91 in 10.0 mi Calm Calm - N/A   Partly Cloudy
4:56 AM 42.1 °F 40.2 °F 41.0 °F 96% 29.91 in 7.0 mi North 3.5 mph - N/A   Partly Cloudy
5:56 AM 42.1 °F 38.4 °F 39.9 °F 92% 29.90 in 10.0 mi NW 5.8 mph - N/A   Partly Cloudy
6:56 AM 41.0 °F - 39.0 °F 93% 29.90 in 10.0 mi Calm Calm - N/A   Scattered Clouds
7:56 AM 43.0 °F 41.3 °F 41.0 °F 93% 29.88 in 9.0 mi West 3.5 mph - N/A   Mostly Cloudy
8:56 AM 46.0 °F 41.9 °F 42.1 °F 86% 29.88 in 10.0 mi NNW 8.1 mph - N/A   Scattered Clouds
9:56 AM 50.0 °F - 41.0 °F 71% 29.88 in 10.0 mi North 9.2 mph - N/A   Scattered Clouds
10:56 AM 54.0 °F - 39.0 °F 57% 29.87 in 10.0 mi NNW 10.4 mph - N/A   Scattered Clouds
11:56 AM 52.0 °F - 37.0 °F 57% 29.87 in 10.0 mi NNW 16.1 mph - N/A   Mostly Cloudy
12:56 PM 50.0 °F - 35.1 °F 57% 29.87 in 10.0 mi NW 16.1 mph 25.3 mph N/A   Overcast
1:56 PM 43.0 °F 33.5 °F 35.1 °F 74% 29.88 in 10.0 mi NW 24.2 mph 31.1 mph N/A   Overcast
2:39 PM 39.2 °F 29.6 °F 37.4 °F 93% 29.90 in 10.0 mi NNW 19.6 mph 25.3 mph 0.00 in Rain Light Rain
2:56 PM 39.0 °F 31.4 °F 36.0 °F 89% 29.90 in 10.0 mi NW 12.7 mph 23.0 mph 0.01 in Rain Light Rain
3:28 PM 39.2 °F 33.0 °F 35.6 °F 87% 29.88 in 10.0 mi North 9.2 mph - 0.01 in Rain Light Rain
3:56 PM 39.0 °F 35.7 °F 37.0 °F 93% 29.86 in 10.0 mi NNE 4.6 mph - 0.01 in   Overcast
4:56 PM 42.1 °F 36.6 °F 36.0 °F 79% 29.88 in 10.0 mi West 9.2 mph - N/A   Mostly Cloudy
5:56 PM 39.9 °F 35.1 °F 35.1 °F 83% 29.89 in 10.0 mi West 6.9 mph - N/A   Partly Cloudy
6:56 PM 37.9 °F - 35.1 °F 89% 29.91 in 10.0 mi Calm Calm - N/A   Partly Cloudy
7:56 PM 37.9 °F 33.5 °F 35.1 °F 89% 29.91 in 10.0 mi West 5.8 mph - N/A   Partly Cloudy
8:56 PM 39.0 °F 29.9 °F 30.0 °F 70% 29.96 in 10.0 mi NW 17.3 mph 34.5 mph N/A   Clear
9:56 PM 37.0 °F 27.7 °F 28.0 °F 70% 30.00 in 10.0 mi NW 16.1 mph - N/A   Clear
10:56 PM 36.0 °F 26.7 °F 28.9 °F 76% 30.04 in 10.0 mi NW 15.0 mph - N/A   Partly Cloudy
11:56 PM 34.0 °F 27.2 °F 27.0 °F 75% 30.05 in 10.0 mi NW 8.1 mph - 0.00 in   Partly Cloudy